Location: Sungai Liu
(2.3667°N, 113.8667°E)
Time: 12:03:25
(UTC+00:00)

Meteor 2-1 Rocket - Pass Details

Date: 20 May 2022
Orbit: 826 x 910 km, 81.3° (Epoch: 04 July)

Event Time Altitude Azimuth Distance (km) Brightness Sun altitude
Rises 20:40:17 0° 352° (N) 3,428 7.6 -22.7°
Reaches altitude 10° 20:42:44 10° 351° (N) 2,481 6.8 -22.1°
Maximum altitude 20:48:20 77° 266° (W) 868 4.0 -20.8°
Drops below altitude 10° 20:53:51 10° 180° (S) 2,442 6.4 -19.5°
Sets 20:56:15 0° 178° (S) 3,371 7.1 -19.0°
